Temp
61 61 60 60 60 60 60 60 60 60 60 61 61 60 60 60 60 59 53 68 64 66 68 72 73 73 73 69 69 67 61 59 61 58 65 69 68 73 78 75 78 82 83 87 84
60 60 60 60 60 60 60 60 60 60 60 60 60 60 60 60 57 54 66 64 66 68 71 72 68 71 68 66 67 66 60 62 66 67 67 69 69 71 70 72 73 77 85 84 82
60 60 60 60 60 60 60 60 59 60 60 60 59 60 59 60 53 66 71 67 67 70 73 74 73 71 65 66 65 62 61 63 66 67 69 71 68 72 69 67 73 74 81 85 83
59 60 60 60 59 59 60 60 60 60 60 59 59 59 60 57 56 71 71 67 69 72 73 71 69 65 63 62 65 60 64 65 68 68 67 66 70 68 71 73 80 80 82 82 83
59 59 59 59 59 59 59 60 60 59 59 59 59 59 57 53 58 73 70 70 71 70 71 69 66 65 62 64 63 60 65 67 69 69 69 70 68 69 70 78 82 81 80 81 83
58 59 59 59 59 59 59 58 58 59 59 59 58 58 53 51 73 73 71 70 71 71 69 70 69 69 65 64 64 67 67 69 69 69 68 66 68 67 75 80 79 78 80 83 82
58 58 58 58 58 58 58 58 57 58 58 59 58 57 51 59 72 72 71 70 71 72 67 71 72 69 68 63 68 67 62 67 69 70 68 69 64 65 78 79 75 77 80 82 81
58 58 58 58 58 58 58 58 57 58 59 59 59 56 50 67 69 67 71 68 71 74 73 74 73 69 66 68 66 62 62 59 68 67 66 67 63 73 78 74 75 78 80 80 84
58 58 58 58 58 58 57 57 58 58 59 59 56 52 52 69 64 71 72 69 69 69 72 74 72 66 66 61 58 58 56 57 62 68 67 66 63 74 77 73 74 76 78 80 82
58 58 57 58 58 57 56 57 57 58 60 60 58 47 59 65 69 69 72 73 69 66 65 66 65 61 60 58 50 54 55 56 57 65 67 65 64 71 74 71 74 77 78 78 78
58 57 57 57 57 56 55 56 53 50 53 57 59 58 65 73 75 69 71 71 71 66 59 61 57 53 58 61 61 58 56 55 61 66 62 64 64 70 72 72 71 71 75 75 75
58 57 57 57 57 56 55 51 58 59 52 58 59 59 66 69 63 67 73 65 62 58 62 58 54 60 64 62 59 57 55 56 61 64 62 63 64 67 69 69 68 71 73 74 74
56 56 57 57 56 54 52 54 63 62 52 59 59 59 63 67 63 66 70 67 62 58 58 55 59 64 61 59 56 57 55 55 56 61 64 61 60 63 68 69 69 69 68 68 69
56 56 56 55 54 54 52 60 62 61 50 55 57 62 64 67 63 73 74 69 63 59 59 58 65 60 59 57 59 53 62 60 58 55 53 60 51 60 63 64 65 65 66 66 68
56 56 55 55 51 50 58 59 62 59 37 61 58 72 67 66 67 65 75 70 60 60 61 57 58 58 57 60 62 58 63 60 59 56 55 55 54 61 61 60 60 62 63 64 65
55 56 55 55 52 56 59 58 59 47 36 56 61 58 59 64 66 67 67 72 69 62 60 61 66 64 63 65 64 65 60 57 56 55 48 56 55 57 62 60 60 62 62 62 63
56 55 53 56 50 57 56 55 46 38 58 55 56 59 60 58 61 62 60 58 56 49 50 57 59 64 66 60 63 62 57 48 45 45 46 53 51 58 61 63 65 61 60 61 62
54 53 54 56 56 57 56 50 37 50 52 62 61 60 55 59 60 60 57 54 59 57 52 48 46 58 65 62 59 58 58 49 37 41 47 51 48 56 58 60 62 61 60 61 61
52 55 50 53 56 54 49 41 45 50 58 58 57 52 54 58 60 58 57 56 60 60 51 49 49 61 63 65 64 55 53 57 48 47 46 52 53 55 57 56 57 57 58 58 59
49 48 49 57 56 51 48 45 51 57 60 58 51 54 49 54 54 55 53 60 58 61 65 56 47 56 59 63 61 59 60 48 51 36 36 47 49 54 52 53 56 56 57 57 59
49 43 55 57 57 49 44 48 54 60 61 55 51 51 51 50 54 49 51 56 59 58 62 60 54 51 55 55 55 53 52 51 51 47 40 40 48 56 58 58 56 56 56 57 58
49 41 56 58 47 51 46 52 54 58 63 59 58 54 51 51 50 47 47 51 57 60 54 56 54 47 51 54 56 57 55 55 45 42 45 43 47 54 55 57 57 55 56 57 57
45 46 57 55 40 44 51 52 57 56 57 55 55 56 53 49 46 50 50 55 55 57 55 54 49 43 45 51 54 52 54 54 51 49 43 40 47 54 55 55 55 55 57 56 56
44 39 48 51 51 43 43 47 49 55 53 51 50 53 51 49 50 48 49 53 55 55 55 55 46 46 41 47 50 46 50 53 52 43 47 44 50 50 51 53 55 55 55 56 56
43 43 47 40 43 43 44 45 45 48 53 51 46 46 47 42 42 44 49 50 53 52 53 53 47 48 48 49 50 50 50 51 49 51 45 51 49 55 56 56 56 57 55 55 55
43 42 48 45 48 44 42 43 42 46 49 47 47 46 43 43 43 44 48 49 49 51 49 50 43 47 44 48 49 47 50 51 51 52 51 52 51 61 58 59 55 54 53 53 53
48 49 46 45 45 43 41 41 42 46 49 50 49 45 42 48 52 53 53 51 51 49 46 47 44 43 40 44 46 41 48 51 52 54 53 48 55 55 53 54 54 52 51 50 51
MSLP
1020.54 1020.24 1019.94 1019.70 1019.46 1019.24 1018.89 1018.57 1018.32 1018.02 1017.67 1017.34 1017.09 1017.01 1016.67 1016.36 1015.96 1015.60 1014.47 1011.72 1011.90 1012.10 1012.37 1012.44 1012.53 1012.54 1012.55 1012.73 1012.73 1012.80 1012.27 1011.46 1010.86 1011.06 1009.99 1010.17 1009.96 1009.87 1009.65 1009.16 1008.90 1008.52 1007.94 1007.76 1008.13
1020.49 1020.14 1019.76 1019.43 1019.09 1018.85 1018.69 1018.48 1018.18 1017.94 1017.64 1017.30 1016.91 1016.60 1016.40 1016.11 1015.49 1013.84 1011.07 1011.14 1011.38 1011.62 1011.87 1011.65 1012.01 1012.38 1012.38 1012.57 1012.90 1012.26 1011.75 1010.85 1010.59 1010.53 1009.86 1009.89 1009.80 1009.76 1009.59 1009.19 1008.85 1008.58 1007.90 1008.07 1008.26
1020.32 1019.98 1019.63 1019.20 1018.92 1018.62 1018.40 1018.15 1017.86 1017.58 1017.33 1017.11 1016.85 1016.55 1016.26 1016.06 1014.92 1010.72 1009.72 1010.30 1011.11 1011.21 1011.59 1011.60 1011.81 1011.88 1012.12 1012.47 1012.73 1012.09 1011.06 1010.74 1010.35 1010.39 1010.24 1009.83 1009.61 1009.68 1009.31 1008.92 1008.56 1008.24 1007.62 1007.83 1007.98
1020.25 1019.84 1019.47 1019.14 1018.79 1018.42 1018.09 1017.74 1017.42 1017.23 1017.02 1016.84 1016.72 1016.43 1016.17 1015.88 1013.28 1009.81 1009.55 1010.06 1010.80 1010.95 1011.27 1011.53 1011.82 1011.72 1011.77 1011.94 1012.13 1011.58 1011.03 1010.71 1010.19 1010.41 1010.43 1010.08 1009.78 1009.26 1008.95 1008.33 1007.83 1007.90 1007.66 1007.62 1007.59
1020.05 1019.70 1019.38 1018.97 1018.50 1018.11 1017.76 1017.46 1017.13 1016.86 1016.66 1016.49 1016.37 1016.31 1016.01 1014.82 1011.73 1009.95 1009.87 1010.02 1010.52 1010.84 1010.62 1011.11 1011.39 1011.48 1011.29 1011.37 1011.54 1011.27 1010.50 1010.45 1010.02 1010.08 1009.87 1009.79 1009.14 1008.93 1008.14 1007.57 1007.13 1007.37 1007.23 1007.03 1006.93
1019.77 1019.46 1019.08 1018.73 1018.31 1017.85 1017.41 1017.06 1016.86 1016.58 1016.23 1016.03 1016.04 1016.08 1015.71 1013.08 1009.82 1009.94 1010.09 1010.11 1010.01 1010.48 1010.59 1010.85 1010.87 1011.10 1010.96 1010.84 1010.75 1010.32 1010.18 1009.66 1009.35 1009.22 1009.45 1009.19 1008.65 1008.68 1006.94 1006.58 1006.57 1006.95 1006.32 1006.19 1006.34
1019.44 1019.00 1018.63 1018.25 1017.85 1017.45 1017.06 1016.62 1016.20 1015.80 1015.56 1015.48 1015.76 1015.83 1014.86 1010.95 1009.71 1009.77 1010.12 1010.13 1009.94 1009.99 1010.51 1010.77 1010.95 1011.03 1010.69 1010.57 1010.42 1010.07 1009.67 1008.95 1008.71 1008.70 1008.76 1008.75 1008.07 1007.19 1005.89 1006.14 1005.98 1006.06 1005.78 1005.68 1006.03
1019.10 1018.75 1018.34 1017.97 1017.64 1017.25 1016.67 1016.23 1015.75 1015.09 1014.63 1014.95 1015.44 1015.67 1013.19 1010.17 1010.04 1010.01 1010.11 1010.27 1010.44 1010.28 1010.30 1010.52 1010.77 1010.76 1010.54 1010.34 1010.01 1009.56 1009.36 1008.50 1008.22 1008.39 1008.37 1008.10 1006.70 1006.17 1005.86 1006.06 1005.76 1005.49 1005.38 1005.41 1005.23
1018.76 1018.48 1018.19 1017.73 1017.28 1016.77 1016.30 1015.65 1015.06 1014.64 1014.40 1014.53 1014.98 1015.19 1011.81 1009.84 1009.55 1008.84 1009.36 1009.51 1010.27 1010.54 1010.44 1010.41 1010.57 1010.42 1010.36 1010.00 1009.73 1009.55 1008.67 1008.42 1007.81 1007.80 1007.78 1007.64 1006.58 1005.61 1005.68 1005.95 1005.62 1005.29 1005.17 1005.01 1005.06
1018.65 1018.30 1017.81 1017.24 1016.63 1016.14 1015.62 1015.18 1014.82 1014.70 1014.47 1014.61 1014.73 1014.55 1010.77 1008.80 1008.11 1008.42 1008.92 1009.07 1009.41 1010.21 1010.40 1010.28 1010.12 1010.01 1009.97 1009.59 1008.88 1008.87 1008.77 1008.43 1007.83 1007.72 1007.48 1006.84 1006.18 1005.56 1005.51 1005.67 1005.33 1005.04 1005.06 1005.07 1005.11
1017.89 1017.37 1017.02 1016.54 1016.02 1015.50 1015.06 1014.54 1014.83 1014.39 1013.81 1011.64 1010.89 1010.34 1008.74 1007.89 1007.65 1007.97 1008.39 1008.52 1008.67 1009.26 1009.31 1009.65 1009.32 1008.83 1008.87 1008.96 1008.98 1009.03 1008.76 1008.23 1007.75 1007.69 1007.55 1006.35 1006.02 1005.20 1005.27 1005.30 1005.30 1005.23 1005.16 1005.63 1005.42
1017.56 1017.38 1016.72 1016.08 1015.55 1015.15 1014.70 1014.01 1012.33 1012.64 1011.59 1009.79 1009.03 1008.90 1008.17 1007.94 1007.61 1007.52 1007.88 1008.02 1008.24 1008.22 1008.69 1009.22 1008.30 1008.36 1008.43 1008.64 1008.77 1008.72 1008.37 1007.87 1007.54 1007.29 1007.43 1006.51 1005.81 1005.52 1005.45 1005.53 1005.83 1005.50 1005.41 1005.92 1006.07
1017.43 1016.99 1016.65 1016.07 1015.30 1014.97 1014.59 1013.43 1012.47 1012.29 1011.35 1008.32 1007.78 1007.12 1006.71 1007.09 1006.81 1006.64 1007.06 1007.12 1007.32 1007.72 1007.90 1007.83 1007.67 1007.37 1007.83 1008.03 1008.16 1008.04 1007.89 1007.54 1007.35 1007.30 1007.02 1006.60 1005.88 1005.57 1005.68 1006.09 1006.35 1006.39 1006.68 1007.09 1006.95
1017.30 1016.74 1016.31 1015.69 1015.09 1014.83 1013.71 1012.51 1012.48 1012.39 1010.79 1007.45 1006.77 1005.38 1005.68 1005.54 1005.52 1005.36 1005.97 1006.24 1006.72 1006.84 1007.47 1007.42 1007.15 1007.26 1007.33 1007.18 1007.37 1007.17 1006.91 1007.01 1007.03 1007.28 1006.52 1006.91 1005.71 1005.68 1006.00 1006.45 1007.02 1007.37 1007.74 1008.08 1007.67
1016.55 1016.12 1016.05 1016.11 1015.50 1014.38 1012.83 1012.70 1012.32 1012.08 1009.76 1005.74 1005.40 1004.90 1004.72 1004.49 1004.21 1004.88 1005.24 1005.72 1005.94 1006.26 1006.84 1006.59 1006.62 1006.58 1006.57 1006.28 1006.56 1006.39 1006.44 1006.62 1006.74 1006.90 1006.89 1006.93 1006.46 1005.64 1006.31 1006.78 1007.74 1008.32 1008.72 1008.96 1008.83
1016.19 1015.82 1015.46 1015.10 1015.09 1013.19 1012.95 1012.86 1012.46 1011.30 1007.27 1004.46 1004.42 1004.44 1004.60 1004.13 1003.91 1004.52 1004.87 1005.33 1005.76 1006.09 1006.38 1006.21 1006.43 1006.20 1005.81 1005.85 1005.97 1006.04 1006.39 1006.87 1007.08 1006.96 1006.63 1006.34 1006.48 1005.85 1006.08 1007.03 1008.20 1009.10 1009.68 1009.99 1009.99
1015.47 1015.23 1015.20 1014.62 1013.25 1012.77 1012.65 1012.40 1011.70 1008.85 1005.37 1003.73 1003.30 1003.62 1003.53 1003.53 1003.69 1003.86 1004.28 1004.81 1005.18 1005.73 1005.92 1006.11 1005.93 1005.80 1005.75 1005.58 1005.52 1005.72 1005.94 1006.11 1006.52 1006.63 1006.39 1007.00 1006.93 1006.09 1006.94 1007.48 1008.09 1009.23 1010.20 1010.78 1010.82
1014.76 1014.27 1013.15 1012.29 1011.58 1012.46 1012.39 1011.56 1008.94 1005.93 1004.10 1003.04 1002.52 1002.81 1002.90 1003.14 1003.29 1003.58 1004.02 1004.42 1005.14 1005.30 1005.46 1005.50 1005.53 1005.29 1005.14 1005.04 1004.87 1005.27 1005.54 1005.70 1006.05 1006.42 1006.61 1007.49 1006.73 1006.86 1008.01 1008.55 1009.16 1010.06 1010.68 1011.12 1011.43
1013.93 1012.50 1012.17 1010.80 1011.42 1012.15 1011.80 1009.42 1005.72 1004.65 1003.34 1002.69 1002.61 1002.66 1002.62 1002.64 1002.73 1003.35 1003.60 1003.76 1004.14 1004.71 1005.04 1005.09 1005.09 1005.05 1005.06 1004.96 1004.99 1005.64 1005.85 1006.50 1006.78 1007.75 1007.42 1006.91 1007.61 1008.42 1008.91 1009.37 1010.01 1010.61 1011.17 1011.64 1012.00
1013.86 1012.79 1011.44 1010.55 1010.95 1011.57 1010.18 1006.50 1005.08 1003.82 1002.85 1002.58 1002.48 1002.43 1002.41 1002.59 1002.95 1003.25 1003.59 1003.61 1003.84 1004.21 1004.44 1004.97 1005.23 1005.46 1005.39 1005.33 1005.58 1005.44 1006.15 1006.86 1007.07 1007.41 1007.20 1006.92 1007.07 1006.97 1008.67 1009.35 1010.21 1010.87 1011.39 1011.90 1012.23
1013.68 1012.68 1010.62 1010.52 1011.02 1010.59 1007.69 1005.95 1004.84 1003.67 1003.25 1002.82 1002.72 1002.76 1002.95 1002.97 1003.13 1003.78 1004.32 1004.45 1004.06 1004.32 1004.62 1004.94 1005.48 1006.11 1006.12 1005.76 1005.62 1006.30 1006.41 1006.99 1007.37 1007.65 1007.15 1007.03 1006.92 1007.84 1007.92 1009.00 1010.03 1011.06 1011.84 1012.28 1012.44
1013.51 1012.13 1010.25 1010.04 1010.01 1008.78 1007.34 1006.00 1005.01 1003.94 1003.11 1002.87 1002.97 1003.22 1003.46 1003.57 1003.74 1004.62 1005.12 1004.97 1005.13 1004.63 1004.82 1005.49 1005.69 1005.88 1006.21 1006.54 1006.52 1006.25 1006.17 1006.59 1006.90 1007.55 1008.03 1008.10 1007.80 1008.79 1009.04 1009.69 1010.52 1011.32 1011.98 1012.46 1012.71
1013.27 1011.79 1010.18 1010.19 1008.78 1007.57 1006.54 1005.44 1004.96 1004.30 1003.59 1003.31 1003.23 1003.35 1004.08 1004.19 1004.66 1004.89 1005.12 1005.52 1005.54 1005.41 1005.01 1005.77 1006.15 1006.19 1006.58 1006.95 1006.87 1006.46 1006.43 1006.71 1007.12 1007.56 1007.56 1007.80 1007.89 1009.16 1009.84 1010.26 1010.85 1011.27 1011.94 1012.50 1012.81
1013.59 1012.17 1010.33 1009.60 1008.80 1008.40 1007.31 1005.62 1004.85 1004.35 1004.10 1004.32 1004.14 1004.11 1004.47 1004.77 1005.06 1005.40 1005.66 1005.91 1005.74 1006.02 1005.77 1005.75 1006.83 1006.50 1006.49 1006.27 1006.52 1006.62 1006.61 1006.80 1006.90 1007.06 1006.85 1007.62 1007.66 1008.91 1009.53 1009.89 1010.75 1011.37 1012.10 1012.54 1012.86
1013.54 1012.08 1010.80 1009.60 1008.86 1008.69 1008.11 1006.68 1005.57 1004.66 1004.75 1004.67 1004.88 1005.22 1005.22 1005.57 1005.87 1006.03 1006.38 1006.28 1006.32 1006.33 1006.45 1006.48 1006.68 1007.12 1007.16 1007.11 1007.06 1006.99 1006.86 1006.92 1006.85 1006.78 1006.85 1006.68 1007.24 1007.59 1008.43 1009.33 1010.27 1011.09 1012.06 1012.46 1012.75
1013.05 1012.04 1010.55 1010.05 1009.23 1008.75 1008.25 1007.20 1006.70 1006.09 1005.33 1005.14 1005.17 1005.59 1006.39 1005.93 1006.21 1006.30 1006.48 1006.61 1006.55 1006.93 1007.11 1007.30 1007.44 1007.57 1007.66 1007.75 1007.55 1007.28 1007.10 1006.94 1006.90 1006.83 1006.82 1006.89 1006.94 1007.31 1008.49 1009.30 1010.48 1011.28 1012.00 1012.40 1012.85
1012.55 1011.87 1011.34 1010.04 1009.28 1008.75 1008.44 1007.87 1007.16 1006.67 1006.33 1005.85 1005.64 1006.26 1006.43 1005.94 1006.30 1006.40 1006.91 1007.20 1007.33 1007.40 1007.70 1007.70 1007.69 1007.96 1007.95 1008.37 1008.02 1007.40 1006.56 1006.38 1006.40 1006.55 1006.65 1006.69 1006.71 1008.09 1008.92 1009.64 1010.60 1011.58 1012.43 1013.02 1013.37
Wind_Speed
13 13 12 12 12 14 14 13 13 12 12 13 13 14 16 15 15 8 11 11 10 11 9 10 6 6 4 3 2 3 4 7 7 9 6 3 5 3 2 8 10 10 10 10 7
14 13 13 13 13 12 13 14 14 13 13 14 14 14 14 16 14 14 13 10 12 14 10 13 10 9 4 4 3 5 5 10 4 7 5 4 4 6 3 7 7 12 11 4 8
15 15 15 14 14 14 13 13 12 12 13 15 15 14 12 12 7 7 7 17 14 14 4 5 10 5 4 4 5 6 6 4 4 9 8 10 9 3 6 9 13 13 10 7 7
17 17 17 17 17 16 15 15 14 14 13 13 13 12 10 1 6 1 2 16 16 13 10 9 9 7 6 8 6 5 7 6 2 7 6 7 4 6 10 12 16 12 15 15 13
17 17 17 18 17 16 17 17 16 15 14 14 11 10 3 4 13 3 10 16 15 9 13 9 14 6 8 7 7 6 5 7 11 9 13 7 16 10 12 16 16 14 15 16 14
15 16 18 19 19 18 17 15 15 17 18 15 9 7 4 9 2 4 10 14 15 10 10 10 10 6 4 5 10 7 10 10 7 12 10 10 5 10 14 15 13 8 16 12 12
15 15 16 19 19 18 18 16 16 18 19 13 9 6 6 15 8 6 12 7 15 11 9 7 4 6 6 7 5 3 5 5 9 6 6 12 5 10 18 5 11 11 14 9 12
16 16 18 19 20 20 18 20 18 19 11 6 8 5 11 3 4 8 9 6 7 8 3 6 6 2 3 1 2 2 1 5 4 3 1 7 4 8 5 6 12 14 10 8 8
16 19 20 21 21 21 19 16 19 10 1 9 7 4 12 5 6 10 15 9 10 7 5 6 9 4 4 2 3 1 5 5 5 1 3 5 8 10 6 4 10 12 11 9 9
18 19 20 19 19 18 17 19 10 6 6 4 2 3 8 3 4 6 12 15 7 11 5 6 5 5 4 6 7 5 3 3 5 2 5 12 13 13 7 5 11 14 12 9 9
15 17 18 19 21 17 14 2 4 4 7 11 8 6 5 6 4 6 10 9 7 7 7 7 7 11 11 9 5 4 5 9 10 7 6 9 9 11 9 5 8 12 11 7 9
17 19 20 20 19 19 2 3 2 2 11 20 18 13 10 3 4 7 16 11 8 10 6 6 11 10 8 8 7 6 5 11 10 5 8 6 11 6 4 4 9 5 2 5 4
19 20 20 22 23 2 4 8 1 5 6 6 8 7 8 13 9 10 18 9 10 11 11 10 1 11 12 9 8 9 9 9 11 1 7 5 5 3 1 4 8 9 7 4 3
20 19 16 18 4 5 7 2 6 5 6 5 6 6 8 8 6 8 17 12 5 15 8 6 9 9 7 10 11 8 12 15 13 6 6 2 6 3 1 3 9 10 10 7 13
16 18 15 8 10 5 2 4 6 3 7 5 4 7 8 12 11 8 12 9 12 9 8 7 6 12 11 15 13 9 6 10 12 10 4 6 6 2 2 3 9 11 12 13 13
17 17 15 7 5 13 9 10 2 4 10 4 7 9 10 7 6 7 12 5 3 7 3 13 2 6 6 6 13 4 4 5 4 4 7 7 7 6 4 5 9 9 10 10 13
19 16 13 8 6 1 2 4 5 7 3 7 7 10 14 12 9 9 15 16 10 9 11 9 13 12 7 7 5 7 6 4 6 6 7 6 6 5 5 2 13 12 10 10 11
20 25 13 11 11 10 4 5 12 8 8 4 4 9 13 10 13 10 15 14 11 5 4 9 7 13 9 11 7 7 6 4 6 6 5 5 6 4 4 7 12 11 11 10 10
22 5 5 5 12 9 7 12 10 9 5 4 3 5 9 10 7 15 14 17 15 16 8 6 4 2 4 3 6 5 5 2 4 2 3 3 4 5 7 10 12 11 9 9 8
6 8 7 2 13 10 8 17 10 6 0 1 8 6 10 10 12 13 14 7 9 14 13 6 3 2 1 2 7 2 9 4 3 5 8 7 8 5 13 13 12 11 9 7 6
3 7 4 5 8 6 12 11 17 13 7 4 4 4 4 6 8 4 3 2 1 7 14 9 5 3 1 6 9 4 4 2 2 2 7 10 6 3 12 14 13 9 6 4 5
3 5 3 9 5 5 11 9 6 11 8 10 6 5 6 5 4 9 13 5 7 5 11 4 5 8 5 2 2 1 6 10 7 9 1 2 4 3 3 11 10 8 4 3 3
4 5 3 5 4 7 8 12 18 16 13 4 9 5 3 5 5 3 3 4 5 3 7 7 1 6 3 4 4 5 5 5 3 3 9 7 2 5 7 9 7 5 2 1 2
3 5 3 4 3 4 5 9 17 3 3 2 2 2 4 4 5 4 6 2 3 2 6 7 2 6 7 2 2 4 9 10 10 6 9 8 7 7 9 11 9 6 2 3 4
2 4 4 4 2 8 6 6 8 7 1 2 3 2 1 4 4 1 2 2 4 5 4 3 6 5 3 5 2 2 6 8 11 11 10 10 12 11 14 13 12 6 3 3 3
3 4 3 6 8 3 4 3 5 7 3 3 4 9 4 5 8 10 7 3 2 4 3 1 4 4 3 4 6 8 10 12 13 14 13 15 15 9 1 8 9 4 2 2 6
2 3 4 4 6 6 2 3 8 5 3 5 8 5 2 9 7 7 6 6 4 3 3 2 6 4 9 2 4 10 15 16 13 11 13 14 14 9 8 9 5 2 1 4 9
Wind_Direction
348 347 345 344 337 334 334 329 326 321 319 318 323 323 322 318 308 269 243 224 181 216 177 135 135 127 114 111 118 163 156 214 230 190 237 202 221 173 346 288 288 285 300 316 151
342 339 338 334 332 332 328 325 323 319 318 319 317 320 323 323 304 259 241 211 203 171 171 158 145 146 127 140 159 188 203 217 219 212 257 266 280 313 285 296 280 283 269 239 179
334 332 331 331 327 323 320 318 314 312 313 317 315 315 319 327 289 246 238 201 195 171 195 133 140 136 143 169 184 175 232 204 233 228 257 285 295 263 259 268 265 263 277 303 244
330 328 327 329 327 324 320 316 315 313 311 311 311 308 315 338 281 144 106 151 169 162 144 132 153 160 162 185 187 208 234 216 232 225 222 241 249 255 240 246 256 262 273 286 271
328 327 324 324 323 324 322 318 314 307 301 304 298 295 291 216 248 313 141 147 149 157 156 152 169 167 196 192 163 229 238 211 236 240 230 251 251 264 257 249 260 265 275 266 259
325 321 324 324 323 322 321 318 314 307 297 290 276 267 232 242 198 249 157 150 153 154 154 161 193 201 169 194 204 200 233 255 265 243 229 218 255 186 252 249 263 257 271 276 230
318 319 322 321 320 322 322 318 312 305 297 276 245 218 237 248 141 86 162 188 170 167 164 182 170 211 161 171 234 225 263 280 224 212 230 217 228 229 251 307 268 259 259 263 197
320 321 322 322 324 323 323 321 315 316 314 243 210 207 256 236 222 217 198 162 182 174 129 173 175 229 246 318 166 257 243 269 150 197 102 197 288 308 319 233 257 266 259 245 260
322 324 323 324 323 322 318 314 312 306 26 150 153 206 266 309 216 203 179 174 163 188 198 109 165 198 179 205 202 85 236 238 288 344 126 232 306 289 316 307 271 260 253 254 252
325 324 322 318 318 317 314 307 292 289 120 133 78 224 238 242 178 153 177 152 156 147 151 180 165 183 169 190 216 192 216 221 246 104 307 289 273 278 303 272 267 263 253 244 253
316 313 313 318 319 319 321 342 187 186 213 210 182 250 281 303 168 156 171 171 136 171 183 191 185 203 193 195 215 224 249 268 265 278 294 295 278 284 327 309 297 258 253 266 247
314 314 318 319 316 324 267 234 245 355 290 228 236 242 256 315 305 147 156 167 179 186 163 170 220 202 200 195 198 205 254 266 279 268 209 303 299 317 359 13 343 280 217 256 238
316 317 320 323 315 286 285 253 198 336 262 274 197 208 208 178 217 198 180 160 181 190 192 213 116 183 183 192 206 227 239 249 250 242 239 273 264 250 130 359 354 23 25 12 39
316 316 321 325 285 336 271 139 307 202 280 243 226 232 164 171 203 182 185 175 183 206 171 225 237 222 203 218 209 248 225 240 247 236 259 264 259 231 114 4 33 36 52 67 107
308 310 314 323 295 264 338 358 352 236 291 156 164 148 155 184 135 181 175 185 199 173 184 200 209 207 219 235 200 232 215 230 227 208 209 178 239 180 177 116 70 70 63 68 75
310 304 309 297 232 251 286 323 264 224 247 191 141 171 167 204 161 129 171 186 173 182 213 230 239 204 195 201 189 139 138 106 122 167 224 197 235 195 210 121 129 102 77 75 76
306 300 288 262 239 247 204 175 201 222 318 182 175 174 186 185 179 163 179 191 191 182 212 221 229 245 241 244 194 185 183 196 200 201 241 160 202 258 131 186 157 135 113 98 87
309 305 267 230 218 219 328 210 221 218 229 296 173 171 189 168 209 166 170 189 210 168 155 203 195 207 199 219 209 192 211 221 235 231 238 165 218 129 77 108 118 117 114 100 82
312 294 263 259 211 178 179 214 202 210 228 217 154 186 205 197 187 191 193 199 201 198 207 187 223 142 196 176 182 154 205 82 124 129 263 214 133 132 140 126 128 125 113 90 75
314 310 281 10 157 164 209 225 224 222 180 177 224 200 200 191 186 192 183 194 202 195 199 183 163 185 116 141 55 247 139 161 226 228 239 215 238 210 184 169 150 145 127 105 82
287 316 11 143 164 203 215 225 239 260 273 213 239 208 211 173 184 120 342 72 149 165 202 185 217 150 169 209 202 151 176 91 143 209 249 255 226 24 194 171 158 140 113 91 78
282 287 86 157 207 208 232 233 249 269 275 243 219 214 184 168 125 136 218 5 343 162 166 160 184 204 183 90 352 208 205 203 217 203 224 283 265 33 136 149 148 134 122 99 60
285 281 310 232 233 228 245 252 247 272 271 258 207 176 191 177 154 151 114 127 3 238 152 158 218 206 199 200 166 210 186 200 148 121 207 238 207 130 128 139 154 152 129 191 332
292 304 280 210 266 313 323 264 249 232 280 137 106 64 129 109 35 128 148 120 71 86 107 123 200 191 239 116 107 186 192 198 212 209 223 223 232 185 190 188 184 171 191 249 255
207 243 267 308 332 332 289 309 308 256 68 175 116 336 45 106 51 294 236 145 77 10 73 141 203 177 145 117 128 217 190 191 220 243 239 265 236 249 210 203 194 181 208 262 285
273 261 328 298 288 311 309 253 303 268 227 224 172 156 183 149 172 194 171 187 120 73 92 72 139 154 159 203 225 252 251 249 246 249 250 256 259 248 213 167 171 184 299 317 334
232 272 275 279 304 295 325 345 327 336 334 18 137 106 238 145 143 96 86 86 99 117 116 121 144 166 252 355 276 256 241 247 241 233 238 245 260 162 164 169 166 146 67 347 340